一网星座-0093星 (ONEWEB-0093 )

导读 | 星芒AI

ONEWEB-0093 是 OneWeb 卫星通信星座计划中的一颗低轨通信卫星,旨在为全球提供高速互联网服务。该卫星由阿丽亚娜集团制造,采用 OneWeb 自主设计的卫星平台,具备高容量和高效数据传输能力。它于2022年发射,运行在约1200公里高度的近极地轨道,与其他卫星协同工作,覆盖全球偏远和未连接地区,支持航空、海运及陆地通信需求。ONEWEB-0093 的部署有助于完善 OneWeb 的全球宽带网络,提升数字包容性。

基本信息
目录编号:
45444
目录名称:
ONEWEB-0093
国际标识:
2020-020W
轨道中心:
EARTH
卫星名称:
一网星座-0093星
卫星全名:
一网星座-0093星 (ONEWEB-0093 )
卫星状态:
在轨 (已飞行2037 天)
发射日期:
2020-03-21 UTC
国别 :
英国 (GB)
星等 :
--
轨道信息
数据来源 国际轨道数据
星历时间: 2025-10-18T05:52:24+0800
8小时前
查看轨道信息
半长轴: 7595.82km
偏心率: 0.0001186
轨道倾角: 87.883°
近地点辐角 90.585°
升交点赤经 69.297°
平近点角 269.541°
近地点: 1216.784km
远地点: 1218.586km
周期: 109.805分钟
每日圈数: 13.114171
详细信息
平衡模式:
三轴稳定
覆盖范围:
全球
运营商:
一网卫星公司
运营商所在国:
英国
制造商(研发单位):
一网卫星公司
制造商所在国:
英国
使用方式:
暂无
卫星简介
OneWeb卫星网络由648颗重约125公斤的微型卫星组成,运行在1200公里的轨道上。 每颗卫星都能够提供至少每秒8千兆位的吞吐量,以使用其高吞吐量的Ku频段有效载荷为家庭和移动平台提供互联网接入。该卫星仍在工作。
2D轨道图
3D轨道图
轨道高度分析图
轨道倾角分析图
轨道综合分析图
查看轨道综合分析图